Location: Krakow
(50.0830°N, 19.9170°E)
Time: 20:07:13
(UTC+01:00)

A-11 Canister half - Visible Passes

Search period start: 30 January 2023 00:00
Search period end: 09 February 2023 00:00
Orbit: 1525 x 1683 km, 47.3° (Epoch: 30 January)

Date Brightness Start Highest point End Pass type
(mag) Time Alt. Az. Time Alt. Az. Time Alt. Az.
30 Jan 10.8 05:20:01 10° S 05:27:11 26° SE 05:34:27 10° E visible
31 Jan 10.8 04:58:35 10° S 05:05:35 25° SE 05:12:39 10° E visible
01 Feb 10.8 04:37:11 10° S 04:44:00 23° SE 04:50:50 10° E visible
02 Feb 10.8 04:15:47 10° S 04:22:24 22° SE 04:29:02 10° E visible
02 Feb 9.7 06:16:50 10° SW 06:25:45 54° SSE 06:34:50 10° E visible
03 Feb 10.8 03:54:25 10° S 04:00:48 21° SE 04:07:12 10° E visible
03 Feb 9.7 05:55:14 10° SW 06:04:06 52° SSE 06:13:07 10° E visible
04 Feb 10.8 03:33:05 10° S 03:39:13 20° SE 03:45:21 10° E visible
04 Feb 9.7 05:33:38 10° SW 05:42:27 51° SSE 05:51:24 10° E visible
05 Feb 10.8 03:12:41 12° SSE 03:17:37 19° SE 03:23:29 10° E visible
05 Feb 9.7 05:12:01 10° SW 05:20:48 49° SSE 05:29:41 10° E visible
06 Feb 10.7 02:52:48 15° SSE 02:56:02 18° SE 03:01:36 10° E visible
06 Feb 9.7 04:51:08 13° SW 04:59:10 48° SSE 05:07:59 10° E visible
07 Feb 10.7 02:32:47 16° SE 02:34:27 17° SE 02:39:41 10° E visible
07 Feb 9.7 04:31:07 19° SSW 04:37:31 46° SSE 04:46:16 10° E visible
07 Feb 9.2 06:32:32 10° WSW 06:41:47 74° S 06:51:12 10° E visible
08 Feb 10.7 02:12:39 16° SE 02:12:52 16° SE 02:17:44 10° E visible
08 Feb 9.7 04:10:58 25° SSW 04:15:53 45° SSE 04:24:33 10° E visible
08 Feb 9.2 06:10:52 10° WSW 06:20:06 73° S 06:29:30 10° E visible
